Weather Roundup
Issued by NWS

Home | Current Version | Previous Version | Graphics & Text | Print | Product List | Glossary Off
Versions: 1 2 3 4 5 6 7 8 9 10 11 12 13 14 15 16 17 18 19 20 21 22 23 24 25 26 27 28 29 30 31 32 33 34 35 36 37 38 39 40 41 42 43 44 45 46 47 48 49 50

000
NZUS93 KARX 282259
HRRWXR

CURRENT HOURLY OBSERVATIONS ACROSS
MUCH OF THE UPPER MISSISSIPPI VALLEY
NATIONAL WEATHER SERVICE LA CROSSE WI
600 PM CDT THU MAY 28 2015


...SOUTHEAST MINNESOTA...


CITY           SKY/WX    TMP DP  RH WIND       PRES   REMARKS
ROCHESTER      PTSUNNY   79  51  37 S16       30.02F
ROCHESTER/MAYO FAIR      79  53  40 SE16G23   30.01F
WINONA         MOSUNNY   79  54  41 S5        30.01F
AUSTIN         MOSUNNY   75  54  46 S12G17    30.00F
ALBERT LEA     MOSUNNY   81  52  36 S13G21    29.98F
DODGE CENTER   MOSUNNY   81  50  34 S22       30.00F
PRESTON        MOSUNNY   78  53  41 S14       30.03F
OWATONNA       MOSUNNY   81  48  32 S17       29.97F
FARIBAULT      MOSUNNY   81  50  34 S17       29.97F
$$

...ELSEWHERE IN MINNESOTA...


CITY           SKY/WX    TMP DP  RH WIND       PRES   REMARKS
MINNEAPOLIS    PTSUNNY   82  51  34 S13       29.94F
INTNL FALLS    CLOUDY    63  56  78 NE5       29.84F
DULUTH         MOSUNNY   50  44  80 SE13      29.97F
RED WING       MOSUNNY   82  48  30 S10G17    29.97F
REDWOOD FALLS  MOSUNNY   83  49  30 S21G33    29.88F
MANKATO        PTSUNNY   82  48  30 S15G24    29.94F
WORTHINGTON    CLOUDY    79  54  41 S17G29    29.92F
FAIRMONT       PTSUNNY   79  54  41 S18G26    29.94F
$$

...SOUTHWEST WISCONSIN...


CITY           SKY/WX    TMP DP  RH WIND       PRES   REMARKS
LA CROSSE      MOSUNNY   82  54  37 S16       30.01F
PRAIRIE DU CHI MOSUNNY   81  48  32 SE8       30.04F
BOSCOBEL       MOSUNNY   82  53  36 S9        30.05F
LONE ROCK      NOT AVBL
PLATTEVILLE    MOSUNNY   80  51  37 SE14      30.08F
FORT MC COY    SUNNY     82  49  32 S14       30.06F
VIROQUA        FAIR      79  51  38 S14       30.07F
WIS DELLS      MOSUNNY   78  54  42 S10G16    30.09F
$$

...ELSEWHERE IN WISCONSIN...


CITY           SKY/WX    TMP DP  RH WIND       PRES   REMARKS
MILWAUKEE      PTSUNNY   74  55  51 SE12      30.12F
MADISON        PTSUNNY   81  52  36 S10       30.08F
GREEN BAY      MOSUNNY   79  62  56 S15G23    30.08F
EAU CLAIRE     MOSUNNY   80  52  37 S15G22    30.00F
BLACK RVR FLS  MOCLDY    83  49  29 SW12G20   30.04F
MEDFORD        MOSUNNY   77  57  49 S14G22    30.05F
WAUSAU         PTSUNNY   80  54  40 S15G25    30.04F
WIS RAPIDS     MOSUNNY   81  50  33 SW14      30.06F
MARSHFIELD     MOSUNNY   79  55  43 S9        30.05F
RICE LAKE      MOSUNNY   81  51  35 S16G25    30.01F
$$

...NORTHEAST IOWA...


CITY           SKY/WX    TMP DP  RH WIND       PRES   REMARKS
DECORAH        MOSUNNY   79  52  38 S13       30.03F
MASON CITY     MOSUNNY   79  53  40 S17       30.00F
CHARLES CITY   MOSUNNY   79  48  34 S16       30.02S
OELWEIN        MOSUNNY   81  52  36 S13G22    30.04F
$$

...ELSEWHERE IN IOWA...


CITY           SKY/WX    TMP DP  RH WIND       PRES   REMARKS
DES MOINES     CLOUDY    74  62  66 SE12      30.01F
IOWA CITY      MOSUNNY   78  53  41 SE14      30.05S
FORT DODGE     CLOUDY    72  61  68 S7        30.00F
$$

...NORTHERN ILLINOIS...


CITY           SKY/WX    TMP DP  RH WIND       PRES   REMARKS
CHICAGO-OHARE  PTSUNNY   80  52  37 E15       30.10F
CHICAGO-MIDWAY PTSUNNY   81  54  39 E12       30.10F
MOLINE         MOSUNNY   80  51  36 SE12      30.04F
ROCKFORD       MOSUNNY   80  53  39 S13       30.09F
PEORIA         MOSUNNY   83  55  38 SE6       30.06F
$$

NOTE: "FAIR" INDICATES FEW OR NO CLOUDS BELOW 12,000 FEET WITH NO
SIGNIFICANT WEATHER AND/OR OBSTRUCTIONS TO VISIBILITY. WIND
SPEEDS ARE IN MILES-PER-HOUR.



USA.gov is the U.S. government's official web portal to all federal, state and local government web resources and services.